Marathon, FL

4:25 AM EDT on March 28, 2017 (GMT -0400)
Florida Keys Marathon

Weather History for KMTH - October, 2014

Change the Weather History Date:

Monday, October 13, 2014

  Actual Average Record
Temperature  
Mean Temperature 81 °F 81 °F  
Max Temperature 87 °F 86 °F 90 °F (2002)
Min Temperature 75 °F 76 °F 73 °F (1998)
Degree Days  
Heating Degree Days 0 0  
Month to date heating degree days 0 0  
Since 1 July heating degree days 0 0  
Cooling Degree Days 16 16  
Month to date cooling degree days 245 224  
Year to date cooling degree days 4489 4178  
Growing Degree Days 31 (Base 50)    
Moisture  
Dew Point 76 °F    
Average Humidity 87    
Maximum Humidity 100    
Minimum Humidity 74    
Precipitation  
Precipitation 0.64 in 0.17 in 1.48 in (1998)
Month to date precipitation 0.67 2.34  
Year to date precipitation 25.80 38.89  
Snow  
Snow 0.00 in - - ()
Month to date snowfall 0.0  
Since 1 July snowfall 0.0  
Since 1 September snowfall 0.0  
Snow Depth 0.00 in    
Sea Level Pressure  
Sea Level Pressure 30.02 in    
Wind  
Wind Speed 9 mph (ESE)    
Max Wind Speed 17 mph    
Max Gust Speed 31 mph    
Visibility 8 miles    
Events Fog , Rain , Thunderstorm    
T = Trace of Precipitation, MM = Missing Value Source: NWS Daily Summary

Daily Weather History Graph

Daily Weather History Graph

Search for Another Location

Airport or City:

Trip Planner

Search our weather history database for the weather conditions in past years. The results will help you decide how hot, cold, wet, or windy it might be!

Date:

Astronomy

Oct. 13, 2014 Rise Set
Actual Time 7:21 AM EDT 6:59 PM EDT
Civil Twilight 6:58 AM EDT 7:22 PM EDT
Nautical Twilight 6:31 AM EDT 7:48 PM EDT
Astronomical Twilight 6:05 AM EDT 8:15 PM EDT
Moon 11:27 PM EDT (10/13) 12:14 PM EDT (10/13)
Length of Visible Light 12h 23m
Length of Day
11h 37m
Waning Gibbous, 70% of the Moon is Illuminated
Oct 13
Waning Gibbous
Oct 15
Last Quarter
Oct 23
New
Oct 30
First Quarter
Nov 6
Full

Hourly Weather History & Observations

Time (EDT) Temp. Heat Index Dew Point Humidity Pressure Visibility Wind Dir Wind Speed Gust Speed Precip Events Conditions
12:53 AM 82.0 °F 89.4 °F 75.9 °F 82% 30.02 in 10.0 mi East 8.1 mph - N/A   Partly Cloudy
1:53 AM 82.0 °F 89.4 °F 75.9 °F 82% 30.01 in 10.0 mi East 8.1 mph 16.1 mph 0.00 in   Partly Cloudy
2:53 AM 81.0 °F 85.2 °F 72.0 °F 74% 30.01 in 10.0 mi East 8.1 mph - N/A   Partly Cloudy
3:53 AM 81.0 °F 87.3 °F 75.9 °F 85% 29.99 in 10.0 mi ESE 11.5 mph 21.9 mph N/A   Mostly Cloudy
4:53 AM 81.0 °F 86.7 °F 75.0 °F 82% 29.99 in 10.0 mi ESE 9.2 mph 16.1 mph N/A   Clear
5:53 AM 81.0 °F 86.2 °F 73.9 °F 79% 30.00 in 10.0 mi East 8.1 mph - N/A   Clear
6:53 AM 82.0 °F 89.4 °F 75.9 °F 82% 30.01 in 10.0 mi East 6.9 mph 17.3 mph N/A   Partly Cloudy
7:53 AM 82.0 °F 88.6 °F 75.0 °F 79% 30.02 in 10.0 mi East 9.2 mph 16.1 mph N/A   Clear
8:53 AM 82.0 °F 90.2 °F 77.0 °F 85% 30.04 in 8.0 mi SE 12.7 mph 23.0 mph 0.00 in Rain Light Rain
9:00 AM 79.0 °F - 73.9 °F 84% 30.04 in 2.5 mi SE 17.3 mph 31.1 mph 0.03 in Rain Light Rain
9:03 AM 77.0 °F - 73.9 °F 90% 30.05 in 0.8 mi SSE 13.8 mph 31.1 mph 0.18 in Rain Heavy Rain
9:09 AM 75.0 °F - 75.0 °F 100% 30.05 in 0.2 mi SSE 11.5 mph 31.1 mph 0.46 in Fog , Rain Heavy Rain
9:16 AM 75.9 °F - 75.9 °F 100% 30.05 in 0.5 mi SE 9.2 mph 17.3 mph 0.57 in Fog , Rain Heavy Rain
9:26 AM 77.0 °F - 77.0 °F 100% 30.04 in 2.0 mi SSE 12.7 mph 20.7 mph 0.60 in Rain Rain
9:45 AM 79.0 °F - 78.1 °F 97% 30.05 in 5.0 mi ESE 5.8 mph - 0.63 in Rain Light Rain
9:53 AM 79.0 °F - 78.1 °F 97% 30.05 in 9.0 mi ESE 9.2 mph - 0.63 in Rain Light Rain
10:09 AM 80.1 °F 86.4 °F 78.1 °F 94% 30.05 in 10.0 mi East 9.2 mph - 0.01 in   Scattered Clouds
10:16 AM 80.1 °F 85.8 °F 77.0 °F 90% 30.05 in 10.0 mi East 10.4 mph - 0.01 in Thunderstorm Scattered Clouds
10:31 AM 81.0 °F 88.6 °F 78.1 °F 91% 30.04 in 10.0 mi ESE 9.2 mph - 0.01 in   Scattered Clouds
10:53 AM 81.0 °F 88.6 °F 78.1 °F 91% 30.04 in 10.0 mi East 10.4 mph 17.3 mph 0.01 in   Scattered Clouds
11:53 AM 84.0 °F 94.8 °F 78.1 °F 82% 30.04 in 10.0 mi ESE 9.2 mph - N/A   Scattered Clouds
12:53 PM 86.0 °F 96.9 °F 77.0 °F 74% 30.02 in 10.0 mi East 9.2 mph 19.6 mph N/A   Partly Cloudy
1:53 PM 87.1 °F 101.5 °F 79.0 °F 77% 30.00 in 10.0 mi East 9.2 mph 18.4 mph N/A   Scattered Clouds
2:53 PM 87.1 °F 99.8 °F 78.1 °F 74% 29.99 in 10.0 mi ESE 10.4 mph 20.7 mph N/A   Scattered Clouds
3:53 PM 87.1 °F 99.8 °F 78.1 °F 74% 29.99 in 10.0 mi East 8.1 mph 19.6 mph N/A   Scattered Clouds
4:53 PM 84.9 °F 95.3 °F 77.0 °F 77% 29.99 in 10.0 mi East 10.4 mph 19.6 mph N/A   Partly Cloudy
5:53 PM 84.0 °F 93.7 °F 77.0 °F 79% 29.99 in 10.0 mi East 9.2 mph 17.3 mph N/A   Partly Cloudy
6:53 PM 82.9 °F 90.8 °F 75.9 °F 79% 29.99 in 10.0 mi East 10.4 mph - N/A   Partly Cloudy
7:53 PM 82.9 °F 91.8 °F 77.0 °F 82% 29.99 in 10.0 mi East 10.4 mph 19.6 mph N/A   Partly Cloudy
8:53 PM 82.0 °F 89.4 °F 75.9 °F 82% 30.00 in 10.0 mi ESE 9.2 mph - N/A   Clear
9:53 PM 82.0 °F 90.2 °F 77.0 °F 85% 30.01 in 10.0 mi East 10.4 mph 18.4 mph N/A   Partly Cloudy
10:53 PM 82.0 °F 90.2 °F 77.0 °F 85% 30.01 in 10.0 mi ESE 6.9 mph - N/A   Clear
11:53 PM 82.0 °F 90.2 °F 77.0 °F 85% 30.00 in 10.0 mi East 8.1 mph - N/A   Partly Cloudy